sat.trackr.live / text

‹ back to catalog

STARLINK-36750

NORAD 67695 · 2026-025C

PAYLOAD ACTIVE UNKNOWN

§ Identity

Operator
Country
US
Launch date
2026-02-07
Launch site
AFWTR
Launch vehicle
Mass (kg)
RCS (m²)

Purposes: comms

External: N2YO · Heavens-Above · Gunter

§ Orbital elements

Epoch: 2026-09-18T22:12:04.036608Z

Period
93.91 min
Inclination
97.2844°
Eccentricity
0.0001091
Mean motion
15.33462563 rev/d
Perigee alt
464.7 km
Apogee alt
466.2 km
Semi-major
6,843.6 km
B*
8.6968e-4
RAAN
11.8343°
Arg perigee
109.0191°
Mean anomaly
251.1170°
Rev number
3,562

§ Raw data

STARLINK-367501 67695U 26025C   26261.92504672  .00028122  00000+0  86968-3 0  99942 67695  97.2844  11.8343 0001091 109.0191 251.1170 15.33462563 35622

JSON: /api/v1/satellites/67695 · /tle

For live sub-satellite position, see the globe view (requires WebGL).

§ Visibility from observer

Set your observer location to see the next 7 days of passes ≥ 10°. The values pass through the URL so the page stays shareable.

No JS? Fill the form by hand. The geolocation button needs JavaScript.